Tracking 18980 objects as of 20-Feb-2018
HD Live streaming from Space Station
objects crossing your sky now

FENGYUN 1C DEB

Track FENGYUN 1C DEB now!
10-day predictions


NORAD ID: 30613
Int'l Code: 1999-025AMU
Perigee: 596.1 km
Apogee: 911.3 km
Inclination: 98.5 °
Period: 99.7 minutes
Semi major axis: 7124 km
RCS: 0.0146 m2 (small)
Launch date: May 10, 1999
Source: People's Republic of China (PRC)
Launch site: Taiyaun Space Center, China (TSC)

Note: This is SATELLITE DEBRIS
aabbcc
Your satellite tracking list
Your tracking list is empty




NASA's NSSDC Master Catalog

Two Line Element Set (TLE):
1 30613U 99025AMU 18050.67369394 +.00000625 +00000-0 +14963-3 0  9998
2 30613 098.5333 114.3177 0221186 315.9551 042.4200 14.43629954578930
Source of the keplerian elements: AFSPC